Location: Madrid
(40.4000°N, 3.6830°W)
Time: 14:57:52
(UTC+02:00)

ISS - Pass Details

Date: 29 March 2020
Orbit: 416 x 423 km, 51.6° (Epoch: 02 April)

Event Time Altitude Azimuth Distance (km) Brightness Sun altitude
Rises 23:18:24 0° 311° (NW) 2,361 1.3 -29.5°
Reaches altitude 10° 23:20:39 10° 322° (NW) 1,496 -0.1 -29.8°
Enters shadow 23:21:13 14° 327° (NNW) 1,292 -0.6 -29.9°
